Location: �clusier
(49.9361°N, 2.7869°E)
Time: 16:56:08
(UTC+00:00)

NOAA 13 - Pass Details

Date: 07 February 2022
Orbit: 842 x 857 km, 98.5° (Epoch: 19 May)

Event Time Altitude Azimuth Distance (km) Brightness Sun altitude
Rises 05:27:54 0° 10° (N) 3,432 8.0 -17.3°
Reaches altitude 10° 05:30:20 10° 6° (N) 2,494 7.2 -16.9°
Maximum altitude 05:35:39 49° 293° (WNW) 1,097 4.9 -16.0°
Drops below altitude 10° 05:40:56 10° 220° (SW) 2,486 6.8 -15.2°
Sets 05:43:22 0° 215° (SW) 3,420 7.6 -14.8°
